Regional Weather Roundup
Issued by NWS Mt. Holly, NJ

Home | Current Version | Previous Version | Text Only | Print | Product List | Glossary On
Versions: 1 2 3 4 5 6 7 8 9 10 11 12 13 14 15 16 17 18 19 20 21 22 23 24 25 26 27 28 29 30 31 32 33 34 35 36 37 38 39 40 41 42 43 44 45 46 47 48 49 50
000
ASUS41 KPHI 231211
RWRPHI

REGIONAL WEATHER ROUNDUP
NATIONAL WEATHER SERVICE MOUNT HOLLY NJ
800 AM EDT SAT MAY 23 2015

NOTE:  "FAIR" INDICATES FEW OR NO CLOUDS BELOW 12,000 FEET WITH NO
SIGNIFICANT WEATHER AND/OR OBSTRUCTIONS TO VISIBILITY.

 * = STATION DOES NOT REPORT PRECIPITATION (E.G. RAIN, SNOW, ETC.)
        OR FOG.

NJZ015>026-231300-
SOUTHERN NEW JERSEY

CITY           SKY/WX    TMP DP  RH WIND       PRES   REMARKS
POMONA         SUNNY     54  31  41 NW12      30.41R
6HR MIN TEMP:  43; 6HR MAX TEMP:  55;

RIO GRANDE*    SUNNY     55  32  41 N10       30.42R
MILLVILLE      SUNNY     55  34  45 N8        30.42R
WRIGHTSTOWN    SUNNY     52  30  43 N12       30.38R
MOUNT HOLLY    SUNNY     52  30  43 NW10      30.41R
TRENTON        SUNNY     51  28  41 NW10      30.41R
6HR MIN TEMP:  45; 6HR MAX TEMP:  53;


$$
NJZ001>014-231300-
NORTHERN NEW JERSEY

CITY           SKY/WX    TMP DP  RH WIND       PRES   REMARKS
SUSSEX         SUNNY     47  27  45 N9        30.41R
ANDOVER*         N/A     47  27  45 VRB7      30.40R
MORRISTOWN     SUNNY     50  32  50 N6G14     30.41R
NEWARK         MOSUNNY   52  29  41 NW13      30.39R
TETERBORO      SUNNY     50  28  42 N10       30.38R
CALDWELL       SUNNY     49  28  44 NW9       30.39R
SOMERVILLE     SUNNY     50  29  44 NW10G16   30.39R
ALLAIRE*       SUNNY     52  28  40 NW13      30.39R
TOMS RIVER*    SUNNY    N/A N/A N/A N12       30.39R

$$
PAZ043-044-047-054-055-060>062-066>071-231300-
EASTERN PENNSYLVANIA

CITY           SKY/WX    TMP DP  RH WIND       PRES   REMARKS
PHILADELPHIA   MOSUNNY   53  27  36 N10       30.43R
6HR MIN TEMP:  51; 6HR MAX TEMP:  60;

NORTH PHILA    SUNNY     53  26  35 N12G20    30.43R
BLUE BELL      SUNNY     52  30  43 CALM      30.42R
DOYLESTOWN     SUNNY     49  27  42 N7        30.41R
QUAKERTOWN*    SUNNY     48  27  43 N9        30.43R
POTTSTOWN      SUNNY     49  28  44 N8        30.44R
LANCASTER      SUNNY     50  30  46 N10       30.44R
COATESVILLE    SUNNY     48  32  53 N8        30.43R
READING        SUNNY     50  28  42 N7        30.43R
6HR MIN TEMP:  43; 6HR MAX TEMP:  54;

ALLENTOWN      SUNNY     49  27  42 NW7       30.43R
6HR MIN TEMP:  43; 6HR MAX TEMP:  52;

MOUNT POCONO   SUNNY     41  21  44 N14G20    30.35R
6HR MIN TEMP:  34; 6HR MAX TEMP:  42;

HAZLETON       SUNNY     43  27  52 NW5       30.43R
WILKES BARRE   SUNNY     46  26  45 NW8       30.41R

$$
DEZALL-MDZ008-012-015-019-020-231300-
DELAWARE AND EASTERN MARYLAND

CITY           SKY/WX    TMP DP  RH WIND       PRES   REMARKS
WILMINGTON     SUNNY     54  34  46 N9        30.44R
6HR MIN TEMP:  48; 6HR MAX TEMP:  54;

DOVER          MOSUNNY   55  34  45 NW8       30.39R
GEORGETOWN     SUNNY     56  35  45 N9        30.41R
6HR MIN TEMP:  50; 6HR MAX TEMP:  60;

EASTON         MOSUNNY   57  36  44 N9        30.44R
PATUXENT       MOSUNNY   59  33  37 NW9       30.42R
OCEAN CITY     SUNNY     59  38  45 N6        30.40R
WALLOPS ISLAND SUNNY     58  40  51 VRB7      30.41R
CAMBRIDGE      SUNNY     59  34  38 N10       30.42R
SALISBURY      SUNNY     57  38  48 N8        30.40R

$$
PAZ001-021-NYZ056-072-MDZ011-DCZ001-231300-
OTHER NEARBY LOCATIONS

CITY           SKY/WX    TMP DP  RH WIND       PRES   REMARKS
HARRISBURG     MOSUNNY   52  25  35 N8        30.44R
STATE COLLEGE  SUNNY     43  25  49 CALM      30.45R
WILLIAMSPORT   SUNNY     45  31  58 W6        30.44R
BINGHAMTON     SUNNY     38  28  67 W5        30.38R WCI  34
NEW YORK CITY  SUNNY     50  27  40 VRB5      30.41R
BALTIMORE      PTSUNNY   53  35  50 NW3       30.44R
WASHINGTON DC  PTSUNNY   57  33  40 N9        30.45R

$$



USA.gov is the U.S. government's official web portal to all federal, state and local government web resources and services.